Time,TemperatureF,DewpointF,PressureIn,WindDirection,WindDirectionDegrees,WindSpeedMPH,WindSpeedGustMPH,Humidity,HourlyPrecipIn,Conditions,Clouds,dailyrainin,SolarRadiationWatts/m^2,SoftwareType,DateUTC
2013-04-20 00:00:00,42.4,-99.9,20.00,East,97,2.0,2.0,255,0.00,,,0.00,0,Wunderground v.1.15,2013-04-20 07:00:00,
2013-04-20 00:10:00,42.5,-99.9,20.00,East,97,0.0,0.0,255,0.00,,,0.00,0,Wunderground v.1.15,2013-04-20 07:10:00,
2013-04-20 00:20:00,42.4,-99.9,20.00,East,97,0.0,0.0,255,0.00,,,0.00,0,Wunderground v.1.15,2013-04-20 07:20:00,
2013-04-20 00:30:00,42.3,-99.9,20.00,East,97,4.0,4.0,255,0.00,,,0.00,0,Wunderground v.1.15,2013-04-20 07:30:00,
2013-04-20 00:35:00,42.4,-99.9,20.00,East,97,2.0,4.0,255,0.00,,,0.00,0,Wunderground v.1.15,2013-04-20 07:35:00,
2013-04-20 00:45:00,42.2,-99.9,20.00,East,97,3.0,3.0,255,0.00,,,0.00,0,Wunderground v.1.15,2013-04-20 07:45:00,
2013-04-20 00:55:00,42.3,-99.9,20.00,East,97,4.0,4.0,255,0.00,,,0.00,0,Wunderground v.1.15,2013-04-20 07:55:00,
2013-04-20 01:00:00,42.3,-99.9,20.00,East,97,3.0,3.0,255,0.00,,,0.00,0,Wunderground v.1.15,2013-04-20 08:00:00,
2013-04-20 01:10:00,42.3,-99.9,20.00,East,97,0.0,0.0,255,0.00,,,0.00,0,Wunderground v.1.15,2013-04-20 08:10:00,
2013-04-20 01:20:00,42.2,-99.9,20.00,East,97,0.0,0.0,255,0.00,,,0.00,0,Wunderground v.1.15,2013-04-20 08:20:00,
2013-04-20 01:30:00,42.1,-99.9,20.00,East,97,2.0,2.0,255,0.00,,,0.00,0,Wunderground v.1.15,2013-04-20 08:30:00,
2013-04-20 01:35:00,42.2,-99.9,20.00,East,97,3.0,3.0,255,0.00,,,0.00,0,Wunderground v.1.15,2013-04-20 08:35:00,
2013-04-20 01:45:00,42.5,-99.9,20.00,East,97,0.0,3.0,255,0.00,,,0.00,0,Wunderground v.1.15,2013-04-20 08:45:00,
2013-04-20 01:55:00,42.7,-99.9,20.00,East,97,0.0,0.0,255,0.00,,,0.00,0,Wunderground v.1.15,2013-04-20 08:55:00,
2013-04-20 02:00:00,42.6,-99.9,20.00,East,97,2.0,2.0,255,0.00,,,0.00,0,Wunderground v.1.15,2013-04-20 09:00:00,
2013-04-20 02:10:00,42.8,-99.9,20.00,East,97,0.0,0.0,255,0.00,,,0.00,0,Wunderground v.1.15,2013-04-20 09:10:00,
2013-04-20 02:20:00,42.5,-99.9,20.00,East,97,2.0,2.0,255,0.00,,,0.00,0,Wunderground v.1.15,2013-04-20 09:20:00,
2013-04-20 02:30:00,42.3,-99.9,20.00,East,97,3.0,3.0,255,0.00,,,0.00,0,Wunderground v.1.15,2013-04-20 09:30:00,
2013-04-20 02:40:00,42.4,-99.9,20.00,East,97,0.0,0.0,255,0.00,,,0.00,0,Wunderground v.1.15,2013-04-20 09:40:00,
2013-04-20 02:50:00,42.7,-99.9,20.00,East,97,2.0,2.0,255,0.00,,,0.00,0,Wunderground v.1.15,2013-04-20 09:50:00,
2013-04-20 03:00:00,42.5,-99.9,20.00,NNW,338,3.0,3.0,255,0.00,,,0.00,0,Wunderground v.1.15,2013-04-20 10:00:00,
2013-04-20 03:10:00,42.6,-99.9,20.00,NNW,337,5.0,5.0,255,0.00,,,0.00,0,Wunderground v.1.15,2013-04-20 10:10:00,
2013-04-20 03:20:00,42.1,-99.9,20.00,NW,319,6.0,6.0,255,0.00,,,0.00,0,Wunderground v.1.15,2013-04-20 10:20:00,
2013-04-20 03:25:00,41.8,-99.9,20.00,NW,325,2.0,6.0,255,0.00,,,0.00,0,Wunderground v.1.15,2013-04-20 10:25:00,
2013-04-20 03:35:00,41.8,-99.9,20.00,NW,325,0.0,3.0,255,0.00,,,0.00,0,Wunderground v.1.15,2013-04-20 10:35:00,
2013-04-20 03:45:00,41.9,-99.9,20.00,NW,325,0.0,3.0,255,0.00,,,0.00,0,Wunderground v.1.15,2013-04-20 10:45:00,
2013-04-20 03:55:00,41.3,-99.9,20.00,NW,325,0.0,3.0,255,0.00,,,0.00,0,Wunderground v.1.15,2013-04-20 10:55:00,
2013-04-20 04:00:00,40.8,-99.9,20.00,NW,325,1.0,1.0,255,0.00,,,0.00,0,Wunderground v.1.15,2013-04-20 11:00:00,
2013-04-20 04:10:00,41.2,-99.9,20.00,NW,325,0.0,0.0,255,0.00,,,0.00,0,Wunderground v.1.15,2013-04-20 11:10:00,
2013-04-20 04:20:00,41.1,-99.9,20.00,NW,325,0.0,0.0,255,0.00,,,0.00,0,Wunderground v.1.15,2013-04-20 11:20:00,
2013-04-20 04:30:00,40.8,-99.9,20.00,NW,325,2.0,2.0,255,0.00,,,0.00,0,Wunderground v.1.15,2013-04-20 11:30:00,
2013-04-20 04:40:00,40.9,-99.9,20.00,NW,325,0.0,9.0,255,0.00,,,0.00,0,Wunderground v.1.15,2013-04-20 11:40:00,
2013-04-20 04:50:00,40.8,-99.9,20.00,NW,325,0.0,9.0,255,0.00,,,0.00,0,Wunderground v.1.15,2013-04-20 11:50:00,
2013-04-20 05:00:00,40.9,-99.9,20.00,NW,325,0.0,0.0,255,0.00,,,0.00,0,Wunderground v.1.15,2013-04-20 12:00:00,
2013-04-20 05:10:00,40.8,-99.9,20.00,NW,325,1.0,1.0,255,0.00,,,0.00,0,Wunderground v.1.15,2013-04-20 12:10:00,
2013-04-20 05:15:00,40.7,-99.9,20.00,NW,325,2.0,2.0,255,0.00,,,0.00,0,Wunderground v.1.15,2013-04-20 12:15:00,
2013-04-20 05:25:00,40.4,-99.9,20.00,NNW,327,4.0,4.0,255,0.00,,,0.00,0,Wunderground v.1.15,2013-04-20 12:25:00,
2013-04-20 05:35:00,40.4,-99.9,20.00,NNW,332,3.0,3.0,255,0.00,,,0.00,0,Wunderground v.1.15,2013-04-20 12:35:00,
2013-04-20 05:45:00,40.6,-99.9,20.00,NNW,335,0.0,1.0,255,0.00,,,0.00,0,Wunderground v.1.15,2013-04-20 12:45:00,
2013-04-20 05:55:00,40.5,-99.9,20.00,NNW,335,3.0,3.0,255,0.00,,,0.00,0,Wunderground v.1.15,2013-04-20 12:55:00,
2013-04-20 06:00:00,40.6,-99.9,20.00,NNW,335,2.0,2.0,255,0.00,,,0.00,0,Wunderground v.1.15,2013-04-20 13:00:00,
2013-04-20 06:10:00,40.5,-99.9,20.00,ESE,106,4.0,4.0,255,0.00,,,0.00,0,Wunderground v.1.15,2013-04-20 13:10:00,
2013-04-20 06:20:00,40.6,-99.9,20.00,ESE,107,3.0,3.0,255,0.00,,,0.00,0,Wunderground v.1.15,2013-04-20 13:20:00,
2013-04-20 06:30:00,40.7,-99.9,20.00,ESE,107,1.0,1.0,255,0.00,,,0.00,0,Wunderground v.1.15,2013-04-20 13:30:00,
2013-04-20 06:40:00,40.5,-99.9,20.00,ESE,107,4.0,4.0,255,0.00,,,0.00,0,Wunderground v.1.15,2013-04-20 13:40:00,
2013-04-20 06:50:00,40.8,-99.9,20.00,ESE,107,0.0,0.0,255,0.00,,,0.00,0,Wunderground v.1.15,2013-04-20 13:50:00,
2013-04-20 06:55:00,40.7,-99.9,20.00,ESE,107,1.0,1.0,255,0.00,,,0.00,0,Wunderground v.1.15,2013-04-20 13:55:00,
2013-04-20 07:00:00,40.9,-99.9,20.00,ESE,107,2.0,2.0,255,0.00,,,0.00,0,Wunderground v.1.15,2013-04-20 14:00:00,
2013-04-20 07:10:00,40.9,-99.9,20.00,ESE,108,1.0,1.0,255,0.00,,,0.00,0,Wunderground v.1.15,2013-04-20 14:10:00,
2013-04-20 07:20:00,40.9,-99.9,20.00,ESE,108,0.0,0.0,255,0.00,,,0.00,0,Wunderground v.1.15,2013-04-20 14:20:00,
2013-04-20 07:30:00,41.3,-99.9,20.00,ESE,108,0.0,0.0,255,0.00,,,0.00,0,Wunderground v.1.15,2013-04-20 14:30:00,
2013-04-20 07:40:00,41.8,-99.9,20.00,ESE,108,0.0,0.0,255,0.00,,,0.00,0,Wunderground v.1.15,2013-04-20 14:40:00,
2013-04-20 07:50:00,41.8,-99.9,20.00,ESE,108,0.0,0.0,255,0.00,,,0.00,0,Wunderground v.1.15,2013-04-20 14:50:00,
2013-04-20 08:00:00,40.4,-99.9,20.00,ESE,108,1.0,1.0,255,0.00,,,0.00,0,Wunderground v.1.15,2013-04-20 15:00:00,
2013-04-20 08:10:00,40.2,-99.9,20.00,ESE,108,2.0,2.0,255,0.00,,,0.00,0,Wunderground v.1.15,2013-04-20 15:10:00,
2013-04-20 08:20:00,41.0,-99.9,20.00,ESE,108,0.0,0.0,255,0.00,,,0.00,0,Wunderground v.1.15,2013-04-20 15:20:00,
2013-04-20 08:25:00,40.9,-99.9,20.00,ESE,108,0.0,0.0,255,0.00,,,0.00,0,Wunderground v.1.15,2013-04-20 15:25:00,
2013-04-20 08:35:00,41.6,-99.9,20.00,ESE,108,0.0,5.0,255,0.00,,,0.00,0,Wunderground v.1.15,2013-04-20 15:35:00,
2013-04-20 08:45:00,41.2,-99.9,20.00,ESE,108,0.0,5.0,255,0.00,,,0.00,0,Wunderground v.1.15,2013-04-20 15:45:00,
2013-04-20 08:55:00,42.7,-99.9,20.00,ESE,108,0.0,5.0,255,0.00,,,0.00,0,Wunderground v.1.15,2013-04-20 15:55:00,
2013-04-20 09:00:00,41.5,-99.9,20.00,ESE,108,0.0,0.0,255,0.00,,,0.00,0,Wunderground v.1.15,2013-04-20 16:00:00,
2013-04-20 09:10:00,41.7,-99.9,20.00,ESE,108,0.0,0.0,255,0.00,,,0.00,0,Wunderground v.1.15,2013-04-20 16:10:00,
2013-04-20 09:20:00,41.7,-99.9,20.00,ESE,108,0.0,0.0,255,0.00,,,0.00,0,Wunderground v.1.15,2013-04-20 16:20:00,
2013-04-20 09:30:00,42.0,-99.9,20.00,ESE,108,0.0,0.0,255,0.00,,,0.00,0,Wunderground v.1.15,2013-04-20 16:30:00,
2013-04-20 09:40:00,43.2,-99.9,20.00,ESE,108,0.0,0.0,255,0.00,,,0.00,0,Wunderground v.1.15,2013-04-20 16:40:00,
2013-04-20 09:50:00,43.0,-99.9,20.00,ESE,108,0.0,0.0,255,0.00,,,0.00,0,Wunderground v.1.15,2013-04-20 16:50:00,
2013-04-20 10:00:00,43.9,-99.9,20.00,ESE,108,1.0,1.0,255,0.00,,,0.00,0,Wunderground v.1.15,2013-04-20 17:00:00,
2013-04-20 10:10:00,44.3,-99.9,20.00,ESE,111,3.0,3.0,255,0.00,,,0.00,0,Wunderground v.1.15,2013-04-20 17:10:00,
2013-04-20 10:20:00,43.0,-99.9,20.00,ESE,111,0.0,0.0,255,0.00,,,0.00,0,Wunderground v.1.15,2013-04-20 17:20:00,
2013-04-20 10:30:00,42.5,-99.9,20.00,ESE,111,0.0,0.0,255,0.00,,,0.00,0,Wunderground v.1.15,2013-04-20 17:30:00,
2013-04-20 10:35:00,43.9,-99.9,20.00,ESE,111,1.0,1.0,255,0.00,,,0.00,0,Wunderground v.1.15,2013-04-20 17:35:00,
2013-04-20 10:45:00,43.0,-99.9,20.00,ESE,111,0.0,0.0,255,0.00,,,0.00,0,Wunderground v.1.15,2013-04-20 17:45:00,
2013-04-20 10:55:00,43.7,-99.9,20.00,ESE,111,0.0,0.0,255,0.00,,,0.00,0,Wunderground v.1.15,2013-04-20 17:55:00,
2013-04-20 11:00:00,43.0,-99.9,20.00,ESE,111,0.0,0.0,255,0.00,,,0.00,0,Wunderground v.1.15,2013-04-20 18:00:00,
2013-04-20 11:10:00,43.7,-99.9,20.00,ESE,111,0.0,0.0,255,0.00,,,0.00,0,Wunderground v.1.15,2013-04-20 18:10:00,
2013-04-20 11:20:00,44.6,-99.9,20.00,ESE,111,0.0,0.0,255,0.00,,,0.00,0,Wunderground v.1.15,2013-04-20 18:20:00,
2013-04-20 11:30:00,43.6,-99.9,20.00,ESE,111,3.0,3.0,255,0.00,,,0.00,0,Wunderground v.1.15,2013-04-20 18:30:00,
2013-04-20 11:40:00,44.5,-99.9,20.00,ESE,111,3.0,3.0,255,0.00,,,0.00,0,Wunderground v.1.15,2013-04-20 18:40:00,
2013-04-20 11:50:00,46.3,-99.9,20.00,ENE,72,3.0,3.0,255,0.00,,,0.00,0,Wunderground v.1.15,2013-04-20 18:50:00,
2013-04-20 11:55:00,46.6,-99.9,20.00,East,84,1.0,3.0,255,0.00,,,0.00,0,Wunderground v.1.15,2013-04-20 18:55:00,
2013-04-20 12:00:00,46.0,-99.9,20.00,East,83,0.0,0.0,255,0.00,,,0.00,0,Wunderground v.1.15,2013-04-20 19:00:00,
2013-04-20 12:10:00,45.2,-99.9,20.00,East,81,1.0,1.0,255,0.00,,,0.00,0,Wunderground v.1.15,2013-04-20 19:10:00,
2013-04-20 12:20:00,45.7,-99.9,20.00,East,81,2.0,2.0,255,0.00,,,0.00,0,Wunderground v.1.15,2013-04-20 19:20:00,
2013-04-20 12:30:00,46.7,-99.9,20.00,East,81,2.0,2.0,255,0.00,,,0.00,0,Wunderground v.1.15,2013-04-20 19:30:00,
2013-04-20 12:40:00,46.0,-99.9,20.00,ENE,72,1.0,1.0,255,0.00,,,0.00,0,Wunderground v.1.15,2013-04-20 19:40:00,
2013-04-20 12:50:00,46.6,-99.9,20.00,ENE,68,4.0,4.0,255,0.00,,,0.00,0,Wunderground v.1.15,2013-04-20 19:50:00,
2013-04-20 12:55:00,46.8,-99.9,20.00,ENE,68,3.0,4.0,255,0.00,,,0.00,0,Wunderground v.1.15,2013-04-20 19:55:00,
2013-04-20 13:00:00,48.6,-99.9,20.00,ENE,68,0.0,0.0,255,0.00,,,0.00,0,Wunderground v.1.15,2013-04-20 20:00:00,
2013-04-20 13:10:00,51.6,-99.9,20.00,East,87,0.0,0.0,255,0.00,,,0.00,0,Wunderground v.1.15,2013-04-20 20:10:00,
2013-04-20 13:20:00,53.2,-99.9,20.00,SE,127,1.0,1.0,255,0.00,,,0.00,0,Wunderground v.1.15,2013-04-20 20:20:00,
2013-04-20 13:30:00,52.7,-99.9,20.00,ENE,67,0.0,0.0,255,0.00,,,0.00,0,Wunderground v.1.15,2013-04-20 20:30:00,
2013-04-20 13:40:00,54.5,-99.9,20.00,WSW,256,4.0,4.0,255,0.00,,,0.00,0,Wunderground v.1.15,2013-04-20 20:40:00,
2013-04-20 13:50:00,57.2,-99.9,20.00,West,259,6.0,6.0,255,0.00,,,0.00,0,Wunderground v.1.15,2013-04-20 20:50:00,
2013-04-20 14:00:00,57.1,-99.9,20.00,West,276,4.0,4.0,255,0.00,,,0.00,0,Wunderground v.1.15,2013-04-20 21:00:00,
2013-04-20 14:10:00,57.5,-99.9,20.00,WSW,238,1.0,1.0,255,0.00,,,0.00,0,Wunderground v.1.15,2013-04-20 21:10:00,
2013-04-20 14:20:00,57.5,-99.9,20.00,West,265,1.0,1.0,255,0.00,,,0.00,0,Wunderground v.1.15,2013-04-20 21:20:00,
2013-04-20 14:25:00,59.0,-99.9,20.00,West,277,4.0,4.0,255,0.00,,,0.00,0,Wunderground v.1.15,2013-04-20 21:25:00,
2013-04-20 14:35:00,58.0,-99.9,20.00,WNW,283,2.0,2.0,255,0.00,,,0.00,0,Wunderground v.1.15,2013-04-20 21:35:00,
2013-04-20 14:45:00,60.1,-99.9,20.00,WNW,288,4.0,4.0,255,0.00,,,0.00,0,Wunderground v.1.15,2013-04-20 21:45:00,
2013-04-20 14:55:00,62.9,-99.9,20.00,WNW,290,5.0,5.0,255,0.00,,,0.00,0,Wunderground v.1.15,2013-04-20 21:55:00,
2013-04-20 15:00:00,61.2,-99.9,20.00,WNW,282,0.0,0.0,255,0.00,,,0.00,0,Wunderground v.1.15,2013-04-20 22:00:00,
2013-04-20 15:10:00,59.7,-99.9,20.00,West,264,1.0,1.0,255,0.00,,,0.00,0,Wunderground v.1.15,2013-04-20 22:10:00,
2013-04-20 15:20:00,55.5,-99.9,20.00,SW,235,1.0,1.0,255,0.00,,,0.00,0,Wunderground v.1.15,2013-04-20 22:20:00,
2013-04-20 15:30:00,54.6,-99.9,20.00,SW,235,5.0,5.0,255,0.00,,,0.00,0,Wunderground v.1.15,2013-04-20 22:30:00,
2013-04-20 15:40:00,53.1,-99.9,20.00,WSW,241,6.0,7.0,255,0.00,,,0.00,0,Wunderground v.1.15,2013-04-20 22:40:00,
2013-04-20 15:50:00,53.6,-99.9,20.00,WSW,239,0.0,7.0,255,0.00,,,0.00,0,Wunderground v.1.15,2013-04-20 22:50:00,
2013-04-20 16:00:00,54.1,-99.9,20.00,WSW,254,5.0,5.0,255,0.00,,,0.00,0,Wunderground v.1.15,2013-04-20 23:00:00,
2013-04-20 16:10:00,58.3,-99.9,20.00,West,281,5.0,5.0,255,0.00,,,0.00,0,Wunderground v.1.15,2013-04-20 23:10:00,
2013-04-20 16:15:00,58.6,-99.9,20.00,WNW,283,6.0,6.0,255,0.00,,,0.00,0,Wunderground v.1.15,2013-04-20 23:15:00,
2013-04-20 16:25:00,59.4,-99.9,20.00,WNW,289,8.0,9.0,255,0.00,,,0.00,0,Wunderground v.1.15,2013-04-20 23:25:00,
2013-04-20 16:35:00,57.0,-99.9,20.00,WSW,257,7.0,7.0,255,0.00,,,0.00,0,Wunderground v.1.15,2013-04-20 23:35:00,
2013-04-20 16:45:00,54.5,-99.9,20.00,WSW,256,9.0,9.0,255,0.00,,,0.00,0,Wunderground v.1.15,2013-04-20 23:45:00,
2013-04-20 16:55:00,53.4,-99.9,20.00,West,271,6.0,7.0,255,0.00,,,0.00,0,Wunderground v.1.15,2013-04-20 23:55:00,
2013-04-20 17:00:00,54.5,-99.9,20.00,WNW,298,12.0,12.0,255,0.00,,,0.00,0,Wunderground v.1.15,2013-04-21 00:00:00,
2013-04-20 17:10:00,53.3,-99.9,20.00,WNW,283,13.0,13.0,255,0.00,,,0.00,0,Wunderground v.1.15,2013-04-21 00:10:00,
2013-04-20 17:20:00,52.2,-99.9,20.00,WNW,287,16.0,16.0,255,0.00,,,0.00,0,Wunderground v.1.15,2013-04-21 00:20:00,
2013-04-20 17:30:00,51.3,-99.9,20.00,West,274,11.0,11.0,255,0.00,,,0.00,0,Wunderground v.1.15,2013-04-21 00:30:00,
2013-04-20 17:40:00,50.2,-99.9,20.00,West,269,7.0,7.0,255,0.00,,,0.00,0,Wunderground v.1.15,2013-04-21 00:40:00,
2013-04-20 17:50:00,49.8,-99.9,20.00,WNW,298,12.0,12.0,255,0.00,,,0.00,0,Wunderground v.1.15,2013-04-21 00:50:00,
2013-04-20 17:55:00,49.4,-99.9,20.00,WNW,298,11.0,12.0,255,0.00,,,0.00,0,Wunderground v.1.15,2013-04-21 00:55:00,
2013-04-20 18:00:00,48.9,-99.9,20.00,West,271,9.0,9.0,255,0.00,,,0.00,0,Wunderground v.1.15,2013-04-21 01:00:00,
2013-04-20 18:10:00,48.1,-99.9,19.99,WNW,291,8.0,8.0,255,0.00,,,0.00,0,Wunderground v.1.15,2013-04-21 01:10:00,
2013-04-20 18:20:00,47.7,-99.9,20.00,WNW,303,9.0,9.0,255,0.00,,,0.00,0,Wunderground v.1.15,2013-04-21 01:20:00,
2013-04-20 18:30:00,46.8,-99.9,20.00,WNW,285,9.0,9.0,255,0.00,,,0.00,0,Wunderground v.1.15,2013-04-21 01:30:00,
2013-04-20 18:40:00,46.1,-99.9,20.00,NW,309,5.0,5.0,255,0.00,,,0.00,0,Wunderground v.1.15,2013-04-21 01:40:00,
2013-04-20 18:50:00,45.3,-99.9,20.00,NW,312,3.0,3.0,255,0.00,,,0.00,0,Wunderground v.1.15,2013-04-21 01:50:00,
2013-04-20 18:55:00,45.3,-99.9,20.00,NW,310,2.0,3.0,255,0.00,,,0.00,0,Wunderground v.1.15,2013-04-21 01:55:00,
2013-04-20 19:00:00,44.9,-99.9,20.00,NNW,337,0.0,0.0,255,0.00,,,0.00,0,Wunderground v.1.15,2013-04-21 02:00:00,
2013-04-20 19:10:00,44.7,-99.9,20.00,NNW,343,4.0,4.0,255,0.00,,,0.00,0,Wunderground v.1.15,2013-04-21 02:10:00,
2013-04-20 19:20:00,44.7,-99.9,20.00,NNW,333,3.0,3.0,255,0.00,,,0.00,0,Wunderground v.1.15,2013-04-21 02:20:00,
2013-04-20 19:25:00,45.3,-99.9,20.00,NNW,333,2.0,3.0,255,0.00,,,0.00,0,Wunderground v.1.15,2013-04-21 02:25:00,
2013-04-20 19:35:00,45.3,-99.9,20.00,WNW,299,3.0,3.0,255,0.00,,,0.00,0,Wunderground v.1.15,2013-04-21 02:35:00,
2013-04-20 19:45:00,44.7,-99.9,20.00,WNW,303,2.0,3.0,255,0.00,,,0.00,0,Wunderground v.1.15,2013-04-21 02:45:00,
2013-04-20 19:50:00,44.2,-99.9,20.00,WNW,303,0.0,0.0,255,0.00,,,0.00,0,Wunderground v.1.15,2013-04-21 02:50:00,
2013-04-20 20:00:00,44.1,-99.9,20.00,WNW,303,0.0,0.0,255,0.00,,,0.00,0,Wunderground v.1.15,2013-04-21 03:00:00,
2013-04-20 20:10:00,43.5,-99.9,20.00,WNW,303,0.0,0.0,255,0.00,,,0.00,0,Wunderground v.1.15,2013-04-21 03:10:00,
2013-04-20 20:20:00,43.5,-99.9,20.00,WNW,303,0.0,0.0,255,0.00,,,0.00,0,Wunderground v.1.15,2013-04-21 03:20:00,
2013-04-20 20:25:00,43.3,-99.9,20.00,WNW,303,0.0,0.0,255,0.00,,,0.00,0,Wunderground v.1.15,2013-04-21 03:25:00,
2013-04-20 20:35:00,42.6,-99.9,20.00,WNW,303,0.0,6.0,255,0.00,,,0.00,0,Wunderground v.1.15,2013-04-21 03:35:00,
2013-04-20 20:45:00,42.7,-99.9,20.00,WNW,303,0.0,6.0,255,0.00,,,0.00,0,Wunderground v.1.15,2013-04-21 03:45:00,
2013-04-20 20:55:00,43.5,-99.9,20.00,WNW,303,0.0,6.0,255,0.00,,,0.00,0,Wunderground v.1.15,2013-04-21 03:55:00,
2013-04-20 21:00:00,43.0,-99.9,20.00,WNW,303,0.0,0.0,255,0.00,,,0.00,0,Wunderground v.1.15,2013-04-21 04:00:00,
2013-04-20 21:05:00,42.5,-99.9,20.00,WNW,303,1.0,1.0,255,0.00,,,0.00,0,Wunderground v.1.15,2013-04-21 04:05:00,
2013-04-20 21:10:00,42.5,-99.9,20.00,WNW,303,1.0,1.0,255,0.00,,,0.00,0,Wunderground v.1.15,2013-04-21 04:10:00,
2013-04-20 21:15:00,43.0,-99.9,20.00,WNW,303,0.0,1.0,255,0.00,,,0.00,0,Wunderground v.1.15,2013-04-21 04:15:00,
2013-04-20 21:20:00,43.1,-99.9,20.00,WNW,303,0.0,0.0,255,0.00,,,0.00,0,Wunderground v.1.15,2013-04-21 04:20:00,
2013-04-20 21:25:00,42.6,-99.9,20.00,WNW,303,0.0,0.0,255,0.00,,,0.00,0,Wunderground v.1.15,2013-04-21 04:25:00,
2013-04-20 21:35:00,42.9,-99.9,20.00,NW,304,0.0,2.0,255,0.00,,,0.00,0,Wunderground v.1.15,2013-04-21 04:35:00,
2013-04-20 21:40:00,42.7,-99.9,20.00,WNW,303,0.0,2.0,255,0.00,,,0.00,0,Wunderground v.1.15,2013-04-21 04:40:00,
2013-04-20 21:50:00,42.6,-99.9,20.00,WNW,303,0.0,2.0,255,0.00,,,0.00,0,Wunderground v.1.15,2013-04-21 04:50:00,
2013-04-20 22:00:00,43.3,-99.9,20.00,WNW,303,0.0,0.0,255,0.00,,,0.00,0,Wunderground v.1.15,2013-04-21 05:00:00,
2013-04-20 22:10:00,43.7,-99.9,20.00,WNW,303,0.0,0.0,255,0.00,,,0.00,0,Wunderground v.1.15,2013-04-21 05:10:00,
2013-04-20 22:15:00,43.3,-99.9,20.00,WNW,303,1.0,1.0,255,0.00,,,0.00,0,Wunderground v.1.15,2013-04-21 05:15:00,
2013-04-20 22:20:00,43.6,-99.9,20.00,WNW,303,0.0,0.0,255,0.00,,,0.00,0,Wunderground v.1.15,2013-04-21 05:20:00,
2013-04-20 22:30:00,42.2,-99.9,20.00,WNW,303,0.0,0.0,255,0.00,,,0.00,0,Wunderground v.1.15,2013-04-21 05:30:00,
2013-04-20 22:35:00,41.8,-99.9,20.00,WNW,303,0.0,0.0,255,0.00,,,0.00,0,Wunderground v.1.15,2013-04-21 05:35:00,
2013-04-20 22:45:00,41.3,-99.9,20.00,WNW,303,0.0,0.0,255,0.00,,,0.00,0,Wunderground v.1.15,2013-04-21 05:45:00,
2013-04-20 22:55:00,41.2,-99.9,20.00,WNW,303,0.0,0.0,255,0.00,,,0.00,0,Wunderground v.1.15,2013-04-21 05:55:00,
2013-04-20 23:00:00,41.7,-99.9,20.00,WNW,303,0.0,0.0,255,0.00,,,0.00,0,Wunderground v.1.15,2013-04-21 06:00:00,
2013-04-20 23:10:00,40.8,-99.9,20.00,WNW,303,1.0,1.0,255,0.00,,,0.00,0,Wunderground v.1.15,2013-04-21 06:10:00,
2013-04-20 23:20:00,40.9,-99.9,20.00,WNW,303,0.0,0.0,255,0.00,,,0.00,0,Wunderground v.1.15,2013-04-21 06:20:00,
2013-04-20 23:30:00,40.7,-99.9,20.00,WNW,303,0.0,0.0,255,0.00,,,0.00,0,Wunderground v.1.15,2013-04-21 06:30:00,
2013-04-20 23:40:00,41.1,-99.9,20.00,WNW,303,0.0,0.0,255,0.00,,,0.00,0,Wunderground v.1.15,2013-04-21 06:40:00,
2013-04-20 23:50:00,41.7,-99.9,20.00,WNW,303,0.0,0.0,255,0.00,,,0.00,0,Wunderground v.1.15,2013-04-21 06:50:00,
2013-04-20 23:55:00,41.5,-99.9,20.00,WNW,303,0.0,0.0,255,0.00,,,0.00,0,Wunderground v.1.15,2013-04-21 06:55:00,